CAPE
0 0 0 0 0 0 0 0 0 0 0 0 0 0 0 14 24 21 24 557 889 784 566 496 565 519 519 707 1021 774 665 570 545 504 443 377 315 304 287 185 0 0 0 0 0 9 32 76 164 251 396 492 574 681 728 738 893 991 949 928 1055 1151 1124 1116 1133 1073 1020 1037 1096 1031 967 938 972 1046 1099 1410 1197 1246 1301 1312 1261 1255 1247 1300 1577 1587
0 0 0 0 0 0 0 0 0 0 0 0 0 0 0 4 29 25 23 18 848 828 750 569 480 531 527 572 948 883 668 649 549 510 460 399 343 310 323 248 173 0 0 0 0 3 23 42 114 222 353 501 504 538 666 661 832 974 970 932 989 1173 1190 1191 1125 1073 973 968 990 948 924 884 874 1044 1446 1371 1333 1368 1381 1529 1486 1423 1334 1400 1565 1890
0 0 0 0 0 0 0 0 0 0 0 0 0 0 0 0 8 17 21 102 456 633 501 537 594 533 512 489 833 928 764 696 624 526 523 486 403 335 332 271 0 58 0 0 0 0 12 26 74 167 320 408 454 511 525 551 710 894 955 942 936 1113 1193 1249 1206 1068 950 931 904 856 838 860 885 943 1335 1340 1498 1762 1703 1874 1805 1709 1522 1561 1649 1958
0 0 0 0 0 0 0 0 0 0 0 0 0 0 0 0 0 5 9 333 566 617 520 234 448 490 478 502 774 866 855 772 713 613 612 536 475 418 374 342 280 249 1 0 0 6 11 20 55 115 236 352 386 421 449 502 601 764 897 928 925 1058 1142 1234 1244 1136 1028 898 843 799 800 818 913 998 1430 1500 1731 1954 2015 2172 2101 2032 1841 1758 1825 2046
0 0 0 0 0 0 0 0 0 0 0 0 0 0 0 0 0 0 0 289 449 421 231 269 348 306 385 638 762 868 856 814 776 736 669 622 534 464 410 345 78 253 241 5 0 0 9 15 48 84 164 280 335 417 370 473 542 665 766 890 930 1006 1086 1162 1225 1156 1063 935 844 871 815 776 960 1182 1269 1414 1686 1991 2264 2292 2246 2216 2161 2073 1996 2101
0 0 0 0 0 0 0 0 0 0 0 0 0 0 0 0 0 0 0 107 14 308 259 269 160 216 311 472 610 876 893 825 803 768 723 675 598 490 426 218 118 6 0 3 3 0 2 11 27 58 123 215 280 262 283 406 494 567 616 666 897 945 1019 1087 1144 1141 1018 920 903 850 756 738 878 998 1160 1368 1585 1834 2170 2478 2410 2326 2378 2406 2149 2064
0 0 0 0 0 0 0 0 0 0 0 0 0 0 0 0 0 0 0 0 9 18 3 184 100 116 122 338 494 766 934 892 839 845 834 760 656 550 466 399 234 338 318 159 0 0 0 0 17 48 90 159 229 230 201 308 425 486 543 565 808 874 959 1023 1071 1084 1001 991 929 624 669 706 810 948 1074 1282 1443 1760 2023 2374 2443 2478 2558 2595 2318 2131
0 0 0 0 0 0 0 0 0 0 0 0 0 0 0 0 0 0 0 0 0 0 17 96 66 50 18 100 404 630 876 980 951 933 969 916 785 648 537 449 411 376 378 319 274 255 1 0 7 40 62 107 172 193 150 226 322 399 506 511 503 574 847 941 1017 1025 1000 987 920 736 275 611 757 824 977 1162 1372 1611 1986 2200 2396 2507 2585 2746 2596 2384
0 0 0 0 0 0 0 0 0 0 0 0 0 0 0 0 0 0 0 0 0 0 0 96 104 75 60 97 151 606 790 928 1076 1069 1026 987 922 818 664 545 479 431 432 162 51 320 264 0 4 15 32 60 105 148 128 166 248 316 414 543 562 426 588 624 906 972 995 925 846 671 292 638 732 755 760 1040 1350 1618 2069 2022 2226 2413 2519 2704 2840 2608
0 0 0 0 0 0 0 0 0 0 0 0 0 0 0 0 0 0 0 0 0 0 0 0 95 35 38 183 512 590 729 836 933 1051 1022 992 927 881 818 657 540 472 461 438 85 34 358 319 0 5 17 22 56 94 116 100 159 243 329 501 547 560 358 401 440 824 891 837 612 318 206 540 694 680 606 904 1261 1503 1740 1862 2052 2275 2420 2567 2813 2884
0 0 0 0 0 0 0 0 0 0 0 0 0 0 0 0 0 0 0 0 0 0 0 0 2 0 0 82 526 693 929 783 724 770 926 978 936 847 756 672 577 540 475 444 393 329 419 401 385 0 0 5 16 34 55 62 106 182 281 406 542 561 300 346 365 463 443 521 512 350 242 186 138 654 576 741 1089 1414 1605 1726 1864 2101 2291 2432 2657 2911
0 0 0 0 0 0 0 0 0 0 0 0 0 0 0 0 0 0 0 0 0 0 0 0 2 0 0 0 396 707 752 720 640 654 714 803 868 905 803 700 623 604 555 461 393 350 431 443 452 434 0 0 3 13 31 46 63 154 251 353 451 522 512 300 332 416 395 441 471 368 241 163 110 44 129 502 910 1306 1514 1628 1716 1910 2103 2262 2440 2667
0 0 0 0 0 0 0 0 0 0 0 0 0 0 0 0 0 0 0 0 0 0 0 0 0 0 0 0 0 0 31 288 497 623 626 621 700 782 857 831 702 635 628 568 526 472 475 495 473 472 465 0 0 15 28 38 47 118 229 330 382 481 494 340 332 404 402 414 448 380 491 713 84 15 58 241 653 1103 1431 1558 1641 1745 1935 2075 2188 2348
0 0 0 0 0 0 0 0 0 0 0 0 0 0 0 0 0 0 0 0 0 0 0 0 0 0 0 51 0 0 0 0 0 0 240 665 648 615 693 821 810 728 668 642 633 618 565 546 542 530 530 497 410 4 9 20 42 99 212 305 367 374 313 363 362 415 404 410 454 370 247 717 245 14 10 62 368 840 1242 1457 1557 1594 1717 1874 1965 2029
0 0 0 0 0 0 0 0 0 0 0 0 0 0 0 0 0 0 0 0 0 0 0 0 0 2 0 0 0 0 0 0 0 0 0 4 533 691 651 660 734 762 734 709 716 712 643 606 583 589 569 551 496 378 5 2 24 71 190 285 404 376 331 375 406 421 437 421 409 352 246 138 76 20 10 4 106 737 857 1186 1333 1383 1418 1574 1744 1831
0 0 0 0 0 0 0 0 0 0 0 0 0 0 0 0 0 0 0 0 0 0 0 0 0 0 0 0 0 0 7 0 0 0 0 0 8 405 697 701 657 672 718 747 764 736 687 641 629 621 620 596 584 498 1 2 9 44 167 260 347 371 332 380 502 440 462 435 383 340 251 141 92 156 16 1 81 574 735 796 1010 1101 1139 1273 1471 1661
0 0 0 0 0 0 0 0 0 0 0 0 0 0 0 0 0 0 0 0 0 0 0 0 0 0 0 0 0 2 7 0 37 0 0 0 0 320 695 766 753 696 681 684 708 730 702 660 657 663 638 645 628 599 508 58 11 41 128 235 309 355 333 380 526 474 475 434 566 562 268 154 90 89 17 0 0 4 660 643 726 834 912 1019 1210 1425
0 0 0 0 0 0 0 0 0 0 0 0 0 0 0 0 0 0 0 0 0 0 0 0 0 0 0 0 0 18 10 0 247 271 0 0 0 474 636 745 784 793 731 684 672 679 694 689 702 695 680 667 680 667 614 499 354 42 83 210 284 358 350 362 468 512 486 455 376 320 269 187 120 66 35 2 0 0 8 105 207 367 709 822 966 1134
0 0 0 0 0 0 0 0 0 0 0 0 0 0 0 0 0 0 0 0 0 0 0 0 0 0 0 0 5 33 78 164 263 271 253 0 0 126 496 696 834 833 796 757 709 694 694 696 716 726 720 692 701 714 703 619 484 42 38 167 247 332 349 348 429 520 527 479 420 338 287 211 132 75 55 12 0 0 0 5 50 155 370 487 764 1058
0 0 0 0 0 0 0 0 0 0 0 0 0 0 0 0 0 0 0 0 0 0 0 0 0 0 0 4 21 70 94 94 232 282 204 289 0 327 218 442 707 883 920 878 848 823 803 765 728 742 726 715 727 733 746 699 596 516 21 157 235 300 328 359 429 582 558 505 464 375 288 219 162 127 54 26 1 0 0 0 0 39 118 299 617 778
0 0 0 0 0 0 0 0 0 0 0 0 0 0 0 0 0 0 0 0 0 0 0 0 0 0 0 3 15 52 75 97 207 244 256 267 170 131 249 269 322 713 900 958 922 902 872 840 766 725 712 741 751 772 780 747 699 643 552 71 206 272 306 367 413 481 566 536 488 448 287 201 120 75 38 6 0 0 0 0 6 0 46 143 344 630
0 0 0 0 0 0 0 0 0 0 0 0 0 0 0 0 0 0 0 0 0 0 0 0 0 0 0 0 2 59 54 8 214 327 276 246 350 272 273 295 297 274 641 890 957 926 904 871 838 778 801 738 777 820 851 824 737 718 676 565 137 212 279 342 382 460 524 550 486 413 301 183 87 66 30 2 0 0 0 0 0 0 1 32 135 419
0 0 0 0 0 0 0 0 0 0 0 0 0 0 0 0 0 0 0 0 0 0 0 0 0 0 0 0 0 6 134 131 48 350 279 212 285 384 370 370 395 413 543 681 918 937 899 901 882 840 786 774 850 860 886 852 809 784 741 690 557 230 261 308 374 400 476 502 483 446 320 178 85 30 8 0 0 0 0 0 0 0 0 0 33 243
0 0 0 0 0 0 0 0 0 0 0 0 0 0 0 0 0 0 0 0 0 0 0 0 0 0 0 0 0 0 28 197 203 336 188 192 251 367 489 482 499 520 598 794 913 911 887 910 876 851 886 851 850 892 899 889 854 800 796 768 716 572 326 258 311 372 428 427 442 404 339 198 79 7 0 0 0 0 0 0 0 0 0 0 0 79
0 0 0 0 0 0 0 0 0 0 0 0 0 0 0 0 0 0 0 0 0 0 0 0 0 0 0 0 0 0 0 198 208 62 217 184 209 298 394 524 570 668 724 801 902 980 952 900 899 907 926 903 889 880 871 860 847 835 830 812 798 732 552 385 268 329 379 392 377 317 307 223 106 14 0 0 0 0 0 0 0 0 0 0 0 0
0 0 0 0 0 0 0 0 0 0 0 0 0 0 0 0 0 0 0 0 0 0 0 0 0 0 0 0 0 0 0 20 204 88 342 324 276 321 428 408 571 690 727 753 855 918 972 969 960 960 908 912 919 909 893 872 827 825 828 821 835 807 715 563 447 273 333 368 347 306 235 209 140 57 1 0 0 0 0 0 0 0 0 0 0 0
0 0 0 0 0 0 0 0 0 0 0 0 0 0 0 0 0 0 0 0 0 0 0 0 0 0 0 2 0 0 0 1 0 200 0 216 294 336 443 501 540 594 694 780 823 879 921 986 994 975 967 958 901 904 904 883 860 846 842 836 821 828 817 729 571 464 414 327 355 324 232 162 128 95 20 0 0 0 0 0 0 0 0 8 0 0
0 0 0 0 0 0 0 0 0 0 0 0 0 0 0 0 0 0 0 0 0 0 0 0 0 0 0 10 4 0 0 1 0 149 334 360 291 223 305 466 619 670 715 741 791 830 868 921 952 953 955 935 955 902 862 862 867 855 870 849 830 830 833 811 703 569 440 442 345 361 321 217 124 73 35 4 0 0 0 0 0 0 0 0 14 11
0 0 0 0 0 0 0 0 0 0 0 0 0 0 0 0 0 0 0 0 0 0 0 0 0 0 2 8 7 1 2 2 0 5 149 54 0 121 478 628 683 719 722 722 769 784 826 881 893 892 882 907 919 928 934 877 886 895 858 823 859 840 838 822 766 653 416 317 446 392 399 348 237 113 55 46 2 0 0 0 0 0 0 0 0 1
0 0 0 0 0 0 0 0 0 0 0 0 0 0 0 0 0 0 0 0 0 0 0 0 0 0 2 5 7 0 3 1 1 0 111 110 60 283 440 496 593 623 660 741 727 765 796 826 865 873 851 837 863 897 914 899 901 909 892 894 887 882 887 858 794 702 574 302 515 509 502 492 413 303 177 76 234 217 1 0 0 0 0 0 0 0
0 0 0 0 0 0 0 0 0 0 0 0 0 0 0 0 0 0 0 0 0 0 0 0 0 0 0 2 7 1 3 0 0 0 0 111 111 191 356 453 489 509 562 588 654 693 770 804 840 828 832 818 796 814 862 904 909 912 919 882 896 921 891 871 808 680 619 482 612 618 559 557 534 484 361 572 630 655 665 700 724 705 646 0 0 0
0 0 0 0 0 0 0 0 0 0 0 0 0 0 0 0 0 0 2 2 1 0 0 0 0 0 0 0 1 0 0 0 0 0 0 73 149 186 275 381 398 406 462 546 633 688 723 773 813 854 803 819 771 756 732 818 863 898 911 918 903 903 894 864 805 716 628 626 717 702 669 652 598 558 553 567 631 700 745 764 795 837 860 869 818 738
0 0 0 0 0 0 0 0 0 0 0 0 0 0 0 0 0 0 26 2 2 1 4 1 1 0 0 0 3 3 4 1 0 3 2 0 114 192 237 268 332 408 398 435 519 578 651 744 856 891 870 860 874 916 900 882 947 1016 975 826 1020 779 750 731 738 720 686 780 814 831 797 750 692 640 633 650 664 698 738 786 822 885 917 950 1002 1006
0 0 0 0 0 0 0 0 0 0 0 0 0 0 0 0 0 0 0 0 0 2 12 6 2 2 3 4 5 3 0 8 9 11 12 2 11 135 200 232 287 342 374 436 497 475 540 647 748 811 883 903 945 956 990 1033 1040 1154 1147 1134 1090 994 785 769 774 795 843 902 902 906 868 842 774 749 757 783 778 767 783 817 881 925 954 996 1059 1093
0 0 0 0 0 0 0 0 0 0 0 0 0 0 0 0 0 0 0 0 0 0 2 9 14 16 14 6 1 0 0 5 10 6 3 1 0 21 92 168 180 267 358 442 449 436 489 552 656 751 834 892 957 1020 1048 1102 1132 1213 1316 1329 1332 1295 892 892 898 923 921 918 936 932 918 914 900 936 932 880 882 876 882 910 976 1001 1021 1083 1155 1208
0 0 0 0 0 0 0 0 0 0 0 0 0 0 0 0 0 0 1 0 0 0 1 3 10 8 14 11 2 0 0 0 3 0 0 0 0 6 51 120 179 98 222 326 400 446 410 441 561 678 772 820 919 1007 1040 1112 1172 1232 1338 1444 1442 1454 1329 1310 1205 975 980 963 978 975 987 965 985 993 1012 1032 1016 987 1020 1055 1096 1131 1148 1282 1339 1387
0 0 0 0 0 0 0 0 0 0 0 0 0 0 0 0 0 0 0 0 0 0 0 0 0 1 7 4 1 0 0 0 0 1 0 0 0 0 15 26 84 152 159 171 261 276 320 358 400 546 622 693 786 914 1030 1108 1192 1230 1290 1391 1510 1529 1462 1399 1528 1525 1509 1472 1459 1456 1392 1154 1147 1135 1080 1106 1146 1206 1256 1284 1270 1263 1260 1419 1553 1605
0 0 0 0 0 0 0 0 0 0 0 0 0 0 0 0 0 0 0 0 0 0 0 0 0 0 0 0 0 0 0 0 0 0 0 0 0 0 0 8 6 9 13 0 6 14 64 198 325 418 530 622 696 751 827 961 1073 1204 1217 1288 1376 1490 1523 1476 1521 1548 1576 1786 1838 1811 1753 1667 1612 1545 1539 1497 1317 1326 1387 1399 1403 1453 1439 1528 1636 1706
0 0 0 0 0 0 0 0 0 0 0 0 0 0 0 0 0 0 0 0 0 0 0 0 0 0 0 1 0 0 0 0 0 0 0 0 0 0 0 0 0 0 0 0 0 0 0 0 0 245 381 477 610 600 598 758 870 1028 1089 1179 1267 1194 1317 1394 1453 1559 1692 1817 1871 2020 2025 1956 1864 1754 1675 1504 1472 1520 1588 1523 1444 1430 1480 1568 1614 1584
0 0 0 0 0 0 0 0 0 0 0 0 0 0 0 0 0 0 0 0 0 0 0 0 0 0 0 0 0 1 4 0 1 0 0 0 0 0 0 0 0 0 0 0 0 0 0 0 0 0 236 325 420 426 426 488 669 819 942 983 1002 956 1113 1205 1309 1498 1546 1724 1875 1980 2068 2085 1978 1840 1789 1786 1769 1781 1830 1747 1536 1432 1495 1576 1563 1431
0 0 0 0 0 0 0 0 0 0 0 0 0 0 0 0 0 0 0 0 0 0 0 0 0 0 0 0 0 0 0 0 0 0 0 0 0 0 0 0 0 0 0 0 0 0 0 0 0 0 0 76 364 392 287 245 382 522 637 710 593 704 807 1293 1436 1353 1552 1651 1669 1799 1889 1997 2086 2174 2242 2216 2170 2132 2032 1822 1671 1529 1585 1772 1874 1902
0 0 0 0 0 0 0 0 0 0 0 0 0 0 0 0 0 0 0 0 0 0 0 0 0 0 0 0 0 0 0 0 0 0 0 0 0 0 0 0 0 0 0 0 0 0 0 0 0 0 0 0 65 213 292 266 253 346 463 593 577 535 468 811 1157 1300 1634 1848 1878 1746 1705 1754 1774 1793 1804 1958 2059 2030 1962 1846 1826 1727 1788 1910 2059 2174
0 0 0 0 0 0 0 0 0 0 0 0 0 0 0 0 0 0 0 0 0 0 0 0 0 0 0 0 0 0 0 0 0 0 0 0 0 0 0 0 0 0 0 0 0 0 0 0 0 0 0 0 0 0 0 163 180 217 302 402 546 481 485 804 1076 1256 1360 1672 1879 1968 2080 2102 2048 2216 2481 2426 1885 1821 1911 2012 2123 1970 2033 2133 2218 2302
0 0 0 0 0 0 0 0 0 0 0 0 0 0 0 0 0 0 0 0 0 0 0 0 0 0 0 0 0 0 0 0 0 0 0 0 0 0 0 0 0 0 0 0 0 0 0 0 0 0 0 0 0 0 0 0 177 217 282 383 456 522 633 671 943 1195 1174 961 884 1459 1936 2092 2323 2470 2614 2648 2780 2549 2342 2402 2436 2242 2294 2361 2378 2400
0 0 0 0 0 0 0 0 0 0 0 0 0 0 0 0 0 0 0 0 0 0 0 0 0 0 0 0 0 0 0 0 0 0 0 0 0 0 0 0 0 0 0 0 0 0 0 0 0 0 0 0 0 0 0 0 0 113 161 302 281 363 526 718 774 1010 1272 1250 1134 1156 1618 2013 2312 2690 2916 3181 3139 2996 2781 2612 2577 2525 2544 2542 2512 2487
0 0 0 0 0 0 0 0 0 0 0 0 0 0 0 0 0 0 0 0 0 0 0 0 0 0 0 0 0 0 0 0 0 0 0 0 0 0 0 0 0 0 0 0 0 0 0 0 0 0 0 0 0 0 0 0 0 0 6 1 2 43 330 508 618 579 785 963 1149 990 1122 1584 2179 2672 2886 3230 3441 3328 3186 3068 2903 2765 2723 2686 2660 2639
0 0 0 0 0 0 0 0 0 0 0 0 0 0 0 0 0 0 0 0 0 0 0 0 0 0 0 0 0 0 0 0 0 0 0 0 0 0 0 0 0 0 0 0 0 0 0 0 0 0 0 0 0 0 0 0 0 0 0 2 0 1 41 309 518 623 792 853 932 977 950 1406 2010 2550 2991 3216 3469 3549 3395 3187 3124 3042 2946 2881 2839 2776
0 0 0 0 0 0 0 0 0 0 0 0 0 0 0 0 0 0 0 0 0 0 0 0 0 0 0 0 0 0 0 0 0 0 0 0 0 0 0 0 0 0 0 0 0 0 0 0 0 0 0 0 0 0 0 1 0 0 0 0 1 1 1 248 336 411 467 427 382 275 390 1120 1910 2358 2736 3156 3443 3638 3616 3410 3267 3199 3143 3094 3005 2946
0 0 0 0 0 0 0 0 0 0 0 0 0 0 0 0 0 0 0 0 0 0 0 0 0 0 0 0 0 0 0 0 0 0 0 0 0 0 0 0 0 0 0 0 0 0 0 0 0 0 0 0 0 0 0 1 0 0 0 0 2 2 2 2 205 374 378 248 179 164 373 685 1159 2108 2767 3045 3374 3662 3710 3666 3463 3289 3225 3138 3071 3024
0 0 0 0 0 0 0 0 0 0 0 0 0 0 0 0 0 0 0 0 0 0 0 0 0 0 0 0 0 0 1 0 0 0 0 0 0 0 0 0 0 0 0 0 0 0 0 4 0 0 0 0 0 0 0 0 0 0 0 0 2 3 4 4 4 229 318 289 217 71 4 26 390 1456 2453 3007 3306 3558 3746 3689 3514 3506 3314 3227 3166 3115
0 0 0 0 0 0 0 0 0 0 0 0 0 0 0 0 0 0 0 0 0 0 0 0 0 0 0 0 0 1 2 2 1 0 2 1 0 0 0 0 0 0 0 0 0 0 0 0 0 0 0 0 0 0 0 0 0 0 0 0 1 2 2 1 4 5 205 314 286 4 4 4 30 728 1951 2789 3282 3499 3681 3749 3642 3579 3440 3317 3258 3193
Wind_Speed
nan nan nan nan nan nan nan nan nan nan nan nan nan nan nan nan nan nan nan 15 8 16 12 9 11 15 15 11 11 12 12 13 11 8 7 7 7 7 6 7 nan nan nan nan nan nan nan nan 2 3 4 6 6 5 5 6 7 7 6 6 7 7 6 6 6 6 6 7 8 9 9 11 13 14 14 14 13 14 14 13 12 11 11 10 12 13
nan nan nan nan nan nan nan nan nan nan nan nan nan nan nan nan nan nan nan nan 12 14 18 15 16 16 15 14 11 13 13 13 12 10 10 9 7 4 5 6 8 nan nan nan nan nan nan nan 2 3 5 6 5 7 5 5 6 6 5 5 5 7 7 6 6 6 5 6 7 7 8 10 11 13 13 14 13 14 13 12 12 11 11 10 12 13
nan nan nan nan nan nan nan nan nan nan nan nan nan nan nan nan nan nan nan 25 18 17 25 19 12 15 15 15 14 11 11 14 15 12 11 10 9 6 3 4 nan nan nan nan nan nan nan nan nan 3 4 6 5 4 4 5 5 5 5 6 5 5 5 5 5 5 6 6 6 6 8 9 11 14 14 13 12 11 11 12 12 10 10 10 11 12
nan nan nan nan nan nan nan nan nan nan nan nan nan nan nan nan nan nan nan 31 26 22 23 20 15 19 21 17 13 11 10 15 17 17 15 12 9 8 5 3 3 4 nan nan nan nan nan nan nan 4 5 5 6 7 5 4 4 6 7 5 4 3 3 4 5 6 6 5 5 7 7 8 9 11 12 12 12 11 10 12 11 10 9 10 11 11
nan nan nan nan nan nan nan nan nan nan nan nan nan nan nan nan nan nan nan 30 29 29 26 27 26 24 19 18 16 13 11 12 14 15 14 13 13 10 9 6 nan 3 2 nan nan nan nan nan nan nan 5 5 5 6 6 5 5 8 6 5 4 3 2 3 4 5 6 6 7 8 11 11 11 13 11 11 12 12 13 11 10 10 9 9 11 11
nan nan nan nan nan nan nan nan nan nan nan nan nan nan nan nan nan nan nan 30 nan 28 25 25 26 23 20 16 14 15 12 9 12 9 9 8 8 7 5 6 4 nan nan nan nan nan nan nan nan nan 5 4 5 5 7 6 4 5 6 6 5 6 5 3 3 3 5 6 6 8 9 10 11 11 11 12 13 12 13 14 10 9 9 9 9 10
nan nan nan nan nan nan nan nan nan nan nan nan nan nan nan nan nan nan nan nan nan nan nan 27 nan 24 25 19 16 15 12 11 14 7 5 4 4 4 4 5 5 4 4 2 nan nan nan nan nan nan nan 5 5 6 8 7 5 3 3 4 5 6 6 5 4 3 6 7 8 6 6 7 8 10 13 13 14 13 13 12 10 9 9 9 8 9
nan nan nan nan nan nan nan nan nan nan nan nan nan nan nan nan nan nan nan nan nan nan nan nan nan nan nan 21 20 20 17 15 13 9 4 2 2 2 2 3 4 5 4 2 3 4 nan nan nan nan nan 7 7 8 8 7 6 4 3 3 4 7 7 7 6 4 5 5 6 6 7 7 7 8 10 12 14 14 13 12 11 9 9 9 8 8
nan nan nan nan nan nan nan nan nan nan nan nan nan nan nan nan nan nan nan nan nan nan nan nan 30 nan nan nan 24 22 18 13 7 6 3 2 3 3 3 3 4 4 3 1 nan 2 3 nan nan nan nan nan 10 9 8 8 7 6 6 5 6 6 7 7 6 5 4 3 4 4 6 7 9 9 9 10 12 12 12 12 12 10 9 9 9 9
nan nan nan nan nan nan nan nan nan nan nan nan nan nan nan nan nan nan nan nan nan nan nan nan nan nan nan 24 24 16 7 2 2 3 3 1 4 4 3 3 3 4 4 2 nan nan 1 2 nan nan nan nan nan nan 11 9 9 8 7 6 5 6 8 7 5 4 4 3 3 4 6 6 8 9 10 10 10 11 11 11 12 11 10 10 10 10
nan nan nan nan nan nan nan nan nan nan nan nan nan nan nan nan nan nan nan nan nan nan nan nan nan nan nan nan 18 14 3 4 5 11 8 5 4 5 4 3 2 3 3 3 3 3 4 5 5 nan nan nan nan nan nan nan 9 8 7 5 5 6 8 7 4 3 3 4 5 5 5 6 7 8 9 10 12 12 11 11 11 11 10 9 9 9
nan nan nan nan nan nan nan nan nan nan nan nan nan nan nan nan nan nan nan nan nan nan nan nan nan nan nan nan 24 21 27 23 13 7 3 4 7 7 5 4 3 2 4 4 3 3 6 9 7 4 nan nan nan nan nan nan nan 8 8 7 5 7 7 7 5 3 3 5 6 6 5 5 7 nan 9 8 9 10 9 9 8 10 10 9 9 8
nan nan nan nan nan nan nan nan nan nan nan nan nan nan nan nan nan nan nan nan nan nan nan nan nan nan nan nan nan nan nan 33 25 20 16 9 8 9 8 6 6 5 4 4 3 4 7 8 7 4 3 nan nan nan nan nan nan 9 9 6 5 5 5 6 5 3 3 5 5 6 6 6 nan nan nan 6 7 7 7 7 7 6 7 7 7 8
nan nan nan nan nan nan nan nan nan nan nan nan nan nan nan nan nan nan nan nan nan nan nan nan nan nan nan nan nan nan nan nan nan nan 28 23 17 12 10 9 10 9 8 5 3 3 4 5 5 3 2 2 1 nan nan nan nan nan 10 8 5 4 5 6 6 4 5 5 5 6 7 7 8 nan nan nan 5 5 6 5 5 5 5 5 6 6
nan nan nan nan nan nan nan nan nan nan nan nan nan nan nan nan nan nan nan nan nan nan nan nan nan nan nan nan nan nan nan nan nan nan nan nan 19 16 14 12 9 10 11 10 7 2 2 4 5 4 1 1 1 2 nan nan nan nan 11 9 6 7 7 7 6 6 5 7 7 8 7 7 nan nan nan nan 6 5 4 4 4 5 5 5 5 6
nan nan nan nan nan nan nan nan nan nan nan nan nan nan nan nan nan nan nan nan nan nan nan nan nan nan nan nan nan nan nan nan nan nan nan nan nan 17 12 7 7 7 9 10 9 6 2 5 6 5 3 1 1 2 nan nan nan nan 10 10 9 8 8 8 8 7 6 7 9 8 8 7 nan 7 nan nan nan 7 4 3 3 3 3 4 4 6
nan nan nan nan nan nan nan nan nan nan nan nan nan nan nan nan nan nan nan nan nan nan nan nan nan nan nan nan nan nan nan nan nan nan nan nan nan 27 9 5 4 5 7 8 8 7 4 5 6 5 3 3 3 3 2 nan nan nan 11 13 12 12 12 9 8 8 9 8 9 8 8 8 nan nan nan nan nan nan 6 5 3 2 2 2 2 3
nan nan nan nan nan nan nan nan nan nan nan nan nan nan nan nan nan nan nan nan nan nan nan nan nan nan nan nan nan nan nan nan 47 43 nan nan nan 33 25 14 6 4 6 7 8 8 6 5 5 4 3 4 5 5 3 4 8 nan nan 13 12 12 11 11 11 11 11 10 9 10 9 8 7 nan nan nan nan nan nan 5 4 4 2 3 2 2
nan nan nan nan nan nan nan nan nan nan nan nan nan nan nan nan nan nan nan nan nan nan nan nan nan nan nan nan nan nan nan 52 48 45 41 nan nan 33 30 28 18 9 8 9 10 10 8 7 8 4 3 3 4 5 5 6 10 nan nan 14 12 11 11 12 14 14 14 12 12 11 9 8 9 nan nan nan nan nan nan nan nan 3 1 1 1 1
nan nan nan nan nan nan nan nan nan nan nan nan nan nan nan nan nan nan nan nan nan nan nan nan nan nan nan nan nan nan nan nan 51 47 43 40 nan 32 31 31 26 15 10 8 8 8 7 7 8 5 2 3 5 6 7 8 9 10 nan 14 14 16 17 16 14 14 13 12 13 13 12 11 11 11 nan nan nan nan nan nan nan nan 2 1 2 0
nan nan nan nan nan nan nan nan nan nan nan nan nan nan nan nan nan nan nan nan nan nan nan nan nan nan nan nan nan nan nan nan 50 49 45 43 38 36 34 36 33 23 16 13 9 8 8 6 7 7 6 5 7 9 10 9 8 9 13 nan 14 15 16 15 15 15 15 15 14 13 12 11 11 nan nan nan nan nan nan nan nan nan nan 5 2 3
nan nan nan nan nan nan nan nan nan nan nan nan nan nan nan nan nan nan nan nan nan nan nan nan nan nan nan nan nan nan nan nan 50 50 49 50 47 41 41 41 39 29 17 16 14 10 10 9 9 8 9 12 12 11 11 10 10 10 10 12 15 17 17 15 15 16 17 17 16 13 13 12 nan nan nan nan nan nan nan nan nan nan nan nan 4 5
nan nan nan nan nan nan nan nan nan nan nan nan nan nan nan nan nan nan nan nan nan nan nan nan nan nan nan nan nan nan 44 47 nan 50 49 47 48 51 46 48 43 39 35 17 16 18 15 14 14 13 13 12 10 10 10 12 11 10 10 12 15 15 14 15 16 17 19 18 17 15 15 16 nan nan nan nan nan nan nan nan nan nan nan nan nan 6
nan nan nan nan nan nan nan nan nan nan nan nan nan nan nan nan nan nan nan nan nan nan nan nan nan nan nan nan nan nan nan 47 48 51 51 49 47 48 52 52 50 49 41 42 29 21 22 24 22 21 18 15 14 12 10 11 11 12 11 11 13 13 15 18 19 20 20 19 18 17 17 16 nan nan nan nan nan nan nan nan nan nan nan nan nan nan
nan nan nan nan nan nan nan nan nan nan nan nan nan nan nan nan nan nan nan nan nan nan nan nan nan nan nan nan nan nan nan 54 53 nan 51 50 51 54 54 52 52 49 50 46 42 40 33 25 22 22 22 19 18 15 14 12 12 13 12 11 10 12 17 20 21 21 20 20 19 18 17 16 16 nan nan nan nan nan nan nan nan nan nan nan nan nan
nan nan nan nan nan nan nan nan nan nan nan nan nan nan nan nan nan nan nan nan nan nan nan nan nan nan nan nan nan nan nan nan 55 nan 54 51 51 54 56 58 55 53 51 49 49 47 41 37 37 32 25 24 22 19 18 16 15 13 13 12 11 14 18 20 23 21 22 21 21 20 18 17 16 nan nan nan nan nan nan nan nan nan nan nan nan nan
nan nan nan nan nan nan nan nan nan nan nan nan nan nan nan nan nan nan nan nan nan nan nan nan nan nan nan nan nan nan nan nan nan 57 nan 56 55 55 59 57 56 54 53 52 50 47 47 47 43 38 39 29 24 25 22 20 19 17 17 15 15 16 17 20 23 24 23 23 21 21 19 18 16 nan nan nan nan nan nan nan nan nan nan nan nan nan
nan nan nan nan nan nan nan nan nan nan nan nan nan nan nan nan nan nan nan nan nan nan nan nan nan nan nan nan nan nan nan nan nan 56 56 57 57 57 57 56 62 61 58 56 54 53 51 48 45 44 39 41 39 31 27 27 24 22 21 19 19 19 18 20 23 25 25 25 24 23 21 20 19 nan nan nan nan nan nan nan nan nan nan nan nan nan
nan nan nan nan nan nan nan nan nan nan nan nan nan nan nan nan nan nan nan nan nan nan nan nan nan nan nan nan nan nan nan nan nan nan 55 nan nan 59 61 64 61 59 58 57 55 54 54 51 50 48 45 41 43 49 44 33 28 28 26 24 23 21 18 19 22 24 25 26 25 24 24 24 24 23 nan nan nan nan nan nan nan nan nan nan nan nan
nan nan nan nan nan nan nan nan nan nan nan nan nan nan nan nan nan nan nan nan nan nan nan nan nan nan nan nan nan nan nan nan nan nan 50 55 nan 58 60 62 59 58 58 57 54 54 52 52 51 50 49 46 46 49 48 48 42 30 26 26 24 22 21 23 21 23 25 25 24 25 27 27 26 25 23 nan 20 19 nan nan nan nan nan nan nan nan
nan nan nan nan nan nan nan nan nan nan nan nan nan nan nan nan nan nan nan nan nan nan nan nan nan nan nan nan nan nan nan nan nan nan nan 53 55 58 58 59 58 56 55 53 55 56 53 52 53 54 53 51 49 47 48 45 44 45 35 27 26 23 23 22 21 21 23 23 24 27 29 29 27 27 25 23 22 22 21 20 20 19 18 nan nan nan
nan nan nan nan nan nan nan nan nan nan nan nan nan nan nan nan nan nan nan nan nan nan nan nan nan nan nan nan nan nan nan nan nan nan nan nan 57 58 58 59 58 55 54 55 55 57 57 54 55 57 58 56 51 50 49 47 46 45 46 39 27 25 25 23 21 20 21 22 27 30 30 29 29 28 26 26 24 24 23 23 23 21 20 18 16 17
nan nan nan nan nan nan nan nan nan nan nan nan nan nan nan nan nan nan nan nan nan nan nan nan nan nan nan nan nan nan nan nan nan nan nan nan 58 58 58 58 56 53 56 55 56 58 56 54 54 57 59 58 56 54 50 48 46 46 46 43 40 31 27 23 21 21 22 25 29 31 31 31 31 29 28 27 26 26 27 26 24 22 21 19 19 20
nan nan nan nan nan nan nan nan nan nan nan nan nan nan nan nan nan nan nan nan nan nan nan nan nan nan nan nan nan nan nan nan nan nan nan nan nan 59 58 58 55 55 56 57 58 57 56 55 55 57 60 61 60 56 53 49 46 44 43 42 40 35 27 25 24 23 23 26 29 31 32 33 32 31 30 29 29 30 29 27 23 22 23 23 24 22
nan nan nan nan nan nan nan nan nan nan nan nan nan nan nan nan nan nan nan nan nan nan nan nan nan nan nan nan nan nan nan nan nan nan nan nan nan nan nan 58 59 60 59 60 61 60 59 58 59 61 62 63 63 60 58 55 51 46 45 45 44 41 32 28 26 25 25 26 28 30 33 33 33 32 32 32 33 32 30 27 25 24 25 26 25 23
nan nan nan nan nan nan nan nan nan nan nan nan nan nan nan nan nan nan nan nan nan nan nan nan nan nan nan nan nan nan nan nan nan nan nan nan nan nan nan 60 61 nan 61 61 59 60 60 60 61 61 61 60 61 63 61 59 55 50 47 44 44 43 40 32 29 27 27 27 29 30 32 33 33 32 33 35 35 34 31 29 27 26 26 27 26 25
nan nan nan nan nan nan nan nan nan nan nan nan nan nan nan nan nan nan nan nan nan nan nan nan nan nan nan nan nan nan nan nan nan nan nan nan nan nan nan nan nan 58 60 61 62 60 58 59 61 62 63 62 63 64 64 62 60 54 49 48 46 46 45 42 34 31 30 29 30 31 32 33 33 32 33 34 34 32 30 29 28 28 30 28 27 27
nan nan nan nan nan nan nan nan nan nan nan nan nan nan nan nan nan nan nan nan nan nan nan nan nan nan nan nan nan nan nan nan nan nan nan nan nan nan nan nan nan nan nan nan nan nan nan 60 60 62 64 65 64 64 64 64 63 58 54 53 52 50 49 50 49 46 40 34 32 31 31 31 30 30 31 32 30 27 25 25 28 29 31 30 29 28
nan nan nan nan nan nan nan nan nan nan nan nan nan nan nan nan nan nan nan nan nan nan nan nan nan nan nan nan nan nan nan nan nan nan nan nan nan nan nan nan nan nan nan nan nan nan nan nan nan 63 66 68 67 66 66 66 65 62 59 57 57 58 57 55 53 51 47 44 42 36 32 30 28 28 29 29 26 26 25 24 25 31 36 31 27 25
nan nan nan nan nan nan nan nan nan nan nan nan nan nan nan nan nan nan nan nan nan nan nan nan nan nan nan nan nan nan nan nan nan nan nan nan nan nan nan nan nan nan nan nan nan nan nan nan nan nan 69 70 69 66 67 66 65 64 63 59 57 59 59 57 55 52 49 46 42 42 38 34 28 26 26 25 25 27 26 27 30 30 28 27 28 28
nan nan nan nan nan nan nan nan nan nan nan nan nan nan nan nan nan nan nan nan nan nan nan nan nan nan nan nan nan nan nan nan nan nan nan nan nan nan nan nan nan nan nan nan nan nan nan nan nan nan nan nan 68 68 66 65 64 64 62 61 58 60 58 56 54 53 51 47 45 40 36 35 31 27 25 24 25 26 27 27 26 25 26 27 28 28
nan nan nan nan nan nan nan nan nan nan nan nan nan nan nan nan nan nan nan nan nan nan nan nan nan nan nan nan nan nan nan nan nan nan nan nan nan nan nan nan nan nan nan nan nan nan nan nan nan nan nan nan nan 70 67 66 68 66 63 61 58 57 55 52 51 50 49 48 44 42 39 34 31 28 27 26 28 29 28 27 26 25 24 25 26 24
nan nan nan nan nan nan nan nan nan nan nan nan nan nan nan nan nan nan nan nan nan nan nan nan nan nan nan nan nan nan nan nan nan nan nan nan nan nan nan nan nan nan nan nan nan nan nan nan nan nan nan nan nan nan nan 67 70 68 64 60 57 54 54 54 52 50 48 47 47 43 40 37 32 29 29 28 27 27 27 26 25 25 25 24 24 23
nan nan nan nan nan nan nan nan nan nan nan nan nan nan nan nan nan nan nan nan nan nan nan nan nan nan nan nan nan nan nan nan nan nan nan nan nan nan nan nan nan nan nan nan nan nan nan nan nan nan nan nan nan nan nan nan 70 68 65 61 58 55 55 56 56 52 48 48 48 47 43 39 35 33 32 30 30 28 26 26 25 26 26 24 24 23
nan nan nan nan nan nan nan nan nan nan nan nan nan nan nan nan nan nan nan nan nan nan nan nan nan nan nan nan nan nan nan nan nan nan nan nan nan nan nan nan nan nan nan nan nan nan nan nan nan nan nan nan nan nan nan nan nan 70 68 65 62 59 58 58 58 56 52 50 47 46 44 40 38 38 38 36 33 31 29 26 27 27 26 26 24 23
nan nan nan nan nan nan nan nan nan nan nan nan nan nan nan nan nan nan nan nan nan nan nan nan nan nan nan nan nan nan nan nan nan nan nan nan nan nan nan nan nan nan nan nan nan nan nan nan nan nan nan nan nan nan nan nan nan nan nan nan nan nan 60 58 57 56 54 52 49 46 43 42 41 38 36 35 37 36 33 31 30 27 27 28 27 24
nan nan nan nan nan nan nan nan nan nan nan nan nan nan nan nan nan nan nan nan nan nan nan nan nan nan nan nan nan nan nan nan nan nan nan nan nan nan nan nan nan nan nan nan nan nan nan nan nan nan nan nan nan nan nan nan nan nan nan nan nan nan nan 59 57 56 54 51 50 47 45 45 45 44 43 43 42 40 38 35 33 31 30 30 28 26
nan nan nan nan nan nan nan nan nan nan nan nan nan nan nan nan nan nan nan nan nan nan nan nan nan nan nan nan nan nan nan nan nan nan nan nan nan nan nan nan nan nan nan nan nan nan nan nan nan nan nan nan nan nan nan nan nan nan nan nan nan nan nan 60 58 57 54 51 50 48 47 47 47 47 47 46 44 42 40 37 35 34 32 30 30 29
nan nan nan nan nan nan nan nan nan nan nan nan nan nan nan nan nan nan nan nan nan nan nan nan nan nan nan nan nan nan nan nan nan nan nan nan nan nan nan nan nan nan nan nan nan nan nan nan nan nan nan nan nan nan nan nan nan nan nan nan nan nan nan nan 62 60 57 54 52 52 53 53 52 51 49 48 46 44 42 41 40 37 34 32 34 32
nan nan nan nan nan nan nan nan nan nan nan nan nan nan nan nan nan nan nan nan nan nan nan nan nan nan nan nan nan nan nan nan nan nan nan nan nan nan nan nan nan nan nan nan nan nan nan nan nan nan nan nan nan nan nan nan nan nan nan nan nan nan nan nan nan 61 61 59 56 nan nan nan 54 52 50 50 51 50 49 45 43 43 39 36 33 29
nan nan nan nan nan nan nan nan nan nan nan nan nan nan nan nan nan nan nan nan nan nan nan nan nan nan nan nan nan nan nan nan nan nan nan nan nan nan nan nan nan nan nan nan nan nan nan nan nan nan nan nan nan nan nan nan nan nan nan nan nan nan nan nan nan nan 62 61 58 nan nan nan nan 55 55 55 54 53 53 56 54 45 36 32 34 32
Wind_Direction
nan nan nan nan nan nan nan nan nan nan nan nan nan nan nan nan nan nan nan 201 209 205 178 172 143 155 169 167 151 140 137 121 109 88 80 94 74 48 37 28 nan nan nan nan nan nan nan nan 138 158 158 144 140 142 129 126 122 124 131 140 128 146 150 150 148 149 155 148 146 145 130 120 118 116 113 109 109 105 103 99 97 95 96 94 93 94
nan nan nan nan nan nan nan nan nan nan nan nan nan nan nan nan nan nan nan nan 206 206 179 184 181 164 176 182 178 172 160 126 113 105 94 97 105 78 32 30 37 nan nan nan nan nan nan nan 155 173 174 166 151 146 145 127 119 126 133 125 137 167 160 150 144 148 149 141 133 144 134 132 126 117 112 109 109 104 105 99 98 98 98 96 96 93
nan nan nan nan nan nan nan nan nan nan nan nan nan nan nan nan nan nan nan 195 196 196 189 201 189 170 179 193 200 193 162 152 143 129 120 129 134 125 91 41 nan nan nan nan nan nan nan nan nan 177 185 179 149 150 140 132 138 131 129 129 153 173 167 150 142 142 128 142 140 133 141 124 132 123 116 111 111 109 102 100 99 103 105 103 99 94
nan nan nan nan nan nan nan nan nan nan nan nan nan nan nan nan nan nan nan 202 205 203 194 198 205 190 192 203 212 204 191 175 163 155 149 145 139 128 109 104 78 51 nan nan nan nan nan nan nan 186 189 193 180 166 151 147 136 146 137 145 157 174 178 160 135 122 137 149 151 142 139 125 128 126 127 133 136 120 111 100 102 110 111 106 103 99
nan nan nan nan nan nan nan nan nan nan nan nan nan nan nan nan nan nan nan 205 203 200 201 206 206 200 203 216 209 211 215 195 171 160 154 153 154 157 164 139 nan 84 40 nan nan nan nan nan nan nan 184 200 194 172 160 160 158 160 142 144 143 162 171 166 133 122 149 161 161 164 161 155 155 156 149 142 132 119 112 114 102 100 112 109 110 107
nan nan nan nan nan nan nan nan nan nan nan nan nan nan nan nan nan nan nan 207 nan 200 200 216 203 198 202 209 223 225 230 212 194 163 137 143 150 162 130 101 128 nan nan nan nan nan nan nan nan nan 185 194 196 186 175 170 162 172 165 153 150 163 169 159 140 148 156 148 158 169 166 152 146 143 144 124 115 117 108 102 113 113 106 114 115 113
nan nan nan nan nan nan nan nan nan nan nan nan nan nan nan nan nan nan nan nan nan nan nan 213 nan 196 206 207 217 229 235 237 220 193 133 133 142 141 133 115 129 131 119 83 nan nan nan nan nan nan nan 188 199 194 196 185 166 158 177 159 150 156 158 163 173 179 171 170 167 156 144 144 139 135 133 129 121 114 116 122 122 114 108 106 114 115
nan nan nan nan nan nan nan nan nan nan nan nan nan nan nan nan nan nan nan nan nan nan nan nan nan nan nan 198 220 226 231 230 229 214 179 114 115 98 120 108 125 149 148 128 67 42 nan nan nan nan nan 194 196 206 205 193 183 161 163 176 157 161 164 169 183 188 183 177 161 151 144 145 138 130 129 127 122 124 131 129 127 133 125 120 125 130
nan nan nan nan nan nan nan nan nan nan nan nan nan nan nan nan nan nan nan nan nan nan nan nan 211 nan nan nan 221 245 235 224 224 218 186 80 53 76 82 103 114 154 184 192 nan 103 82 nan nan nan nan nan 196 203 208 199 193 178 172 177 173 165 171 180 187 183 179 170 147 138 146 143 149 149 144 139 133 132 139 134 143 141 146 139 132 135
nan nan nan nan nan nan nan nan nan nan nan nan nan nan nan nan nan nan nan nan nan nan nan nan nan nan nan 201 220 223 242 266 234 207 177 111 38 38 65 99 123 172 203 254 nan nan 202 161 nan nan nan nan nan nan 205 202 194 185 185 178 174 165 180 191 192 181 159 150 162 157 149 138 157 164 163 153 140 141 148 144 145 147 152 143 136 130
nan nan nan nan nan nan nan nan nan nan nan nan nan nan nan nan nan nan nan nan nan nan nan nan nan nan nan nan 226 242 169 59 190 197 187 160 109 78 84 93 155 173 206 243 265 273 269 249 235 nan nan nan nan nan nan nan 193 187 181 177 171 168 187 196 196 188 144 153 175 166 155 145 160 171 171 163 152 156 158 151 150 152 148 153 140 138
nan nan nan nan nan nan nan nan nan nan nan nan nan nan nan nan nan nan nan nan nan nan nan nan nan nan nan nan 208 196 188 182 180 184 177 107 83 85 95 110 121 152 197 219 243 257 271 265 262 267 nan nan nan nan nan nan nan 192 182 181 169 180 189 194 197 186 150 171 178 175 174 159 168 nan 174 159 152 152 148 149 152 153 158 150 153 140
nan nan nan nan nan nan nan nan nan nan nan nan nan nan nan nan nan nan nan nan nan nan nan nan nan nan nan nan nan nan nan 182 184 180 172 148 123 121 122 128 152 170 196 214 236 254 266 278 278 306 7 nan nan nan nan nan nan 204 195 188 177 171 192 196 202 185 166 186 186 184 184 176 nan nan nan 168 157 154 148 157 158 159 140 152 151 136
nan nan nan nan nan nan nan nan nan nan nan nan nan nan nan nan nan nan nan nan nan nan nan nan nan nan nan nan nan nan nan nan nan nan 185 178 169 152 147 151 165 173 182 191 219 257 274 270 262 292 358 33 90 nan nan nan nan nan 207 202 187 171 196 199 202 192 185 181 193 196 193 189 195 nan nan nan 164 162 161 166 151 146 140 139 128 130
nan nan nan nan nan nan nan nan nan nan nan nan nan nan nan nan nan nan nan nan nan nan nan nan nan nan nan nan nan nan nan nan nan nan nan nan 187 184 173 169 163 180 185 186 184 195 277 267 255 249 283 57 103 176 nan nan nan nan 214 215 206 197 198 199 197 202 195 191 195 201 199 200 nan nan nan nan 174 183 179 168 162 155 153 144 130 122
nan nan nan nan nan nan nan nan nan nan nan nan nan nan nan nan nan nan nan nan nan nan nan nan nan nan nan nan nan nan nan nan nan nan nan nan nan 196 212 194 174 171 185 191 181 173 214 258 246 237 243 277 221 227 nan nan nan nan 215 216 212 206 208 203 194 194 204 199 200 203 206 204 nan 192 nan nan nan 182 180 182 175 152 136 132 141 135
nan nan nan nan nan nan nan nan nan nan nan nan nan nan nan nan nan nan nan nan nan nan nan nan nan nan nan nan nan nan nan nan nan nan nan nan nan 188 196 218 176 164 179 188 182 177 200 233 228 231 280 275 279 277 254 nan nan nan 218 213 208 201 199 200 199 198 201 200 203 204 206 208 nan nan nan nan nan nan 189 193 181 157 139 147 127 123
nan nan nan nan nan nan nan nan nan nan nan nan nan nan nan nan nan nan nan nan nan nan nan nan nan nan nan nan nan nan nan nan 193 191 nan nan nan 192 184 177 173 166 153 152 163 178 197 210 208 220 261 301 315 326 300 256 230 nan nan 216 212 204 199 195 197 198 199 197 195 203 204 203 203 nan nan nan nan nan nan 197 193 200 208 81 89 128
nan nan nan nan nan nan nan nan nan nan nan nan nan nan nan nan nan nan nan nan nan nan nan nan nan nan nan nan nan nan nan 193 192 192 195 nan nan 186 181 174 165 156 159 160 163 175 186 196 198 220 288 302 310 306 293 267 246 nan nan 214 211 206 204 204 200 199 197 192 190 196 203 202 198 nan nan nan nan nan nan nan nan 216 138 161 185 144
nan nan nan nan nan nan nan nan nan nan nan nan nan nan nan nan nan nan nan nan nan nan nan nan nan nan nan nan nan nan nan nan 198 198 200 198 nan 184 179 172 158 143 128 128 144 152 159 189 202 201 222 281 287 280 277 282 263 255 nan 224 209 203 204 204 202 204 200 195 189 189 198 199 199 200 nan nan nan nan nan nan nan nan 212 88 241 197
nan nan nan nan nan nan nan nan nan nan nan nan nan nan nan nan nan nan nan nan nan nan nan nan nan nan nan nan nan nan nan nan 206 203 204 202 194 185 177 171 159 130 110 99 113 127 146 176 208 194 185 220 243 250 266 279 291 272 247 nan 220 215 211 206 203 203 200 202 194 192 194 200 204 nan nan nan nan nan nan nan nan nan nan 220 213 236
nan nan nan nan nan nan nan nan nan nan nan nan nan nan nan nan nan nan nan nan nan nan nan nan nan nan nan nan nan nan nan nan 209 208 210 207 199 190 183 177 174 162 120 120 115 131 149 168 190 207 198 211 227 246 269 280 282 281 270 249 235 220 211 212 210 206 205 205 201 195 194 197 nan nan nan nan nan nan nan nan nan nan nan nan 204 232
nan nan nan nan nan nan nan nan nan nan nan nan nan nan nan nan nan nan nan nan nan nan nan nan nan nan nan nan nan nan 218 213 nan 209 209 204 201 198 193 191 190 192 183 159 152 154 160 172 183 200 213 207 224 247 267 272 281 292 290 266 245 232 219 216 212 211 211 210 207 200 199 202 nan nan nan nan nan nan nan nan nan nan nan nan nan 221
nan nan nan nan nan nan nan nan nan nan nan nan nan nan nan nan nan nan nan nan nan nan nan nan nan nan nan nan nan nan nan 221 218 216 212 206 200 199 201 201 202 202 201 196 187 178 178 182 187 196 204 199 207 222 247 259 268 274 277 277 258 243 229 219 215 214 213 211 208 209 208 207 nan nan nan nan nan nan nan nan nan nan nan nan nan nan
nan nan nan nan nan nan nan nan nan nan nan nan nan nan nan nan nan nan nan nan nan nan nan nan nan nan nan nan nan nan nan 224 220 nan 218 213 207 204 204 207 208 209 210 210 206 196 193 193 189 191 196 199 203 210 220 232 247 258 268 272 269 249 235 223 218 216 216 214 213 214 213 210 212 nan nan nan nan nan nan nan nan nan nan nan nan nan
nan nan nan nan nan nan nan nan nan nan nan nan nan nan nan nan nan nan nan nan nan nan nan nan nan nan nan nan nan nan nan nan 225 nan 220 220 214 210 210 210 212 214 214 215 213 211 207 201 196 190 194 200 200 207 211 217 226 237 250 259 263 254 239 228 220 217 218 218 216 215 215 214 213 nan nan nan nan nan nan nan nan nan nan nan nan nan
nan nan nan nan nan nan nan nan nan nan nan nan nan nan nan nan nan nan nan nan nan nan nan nan nan nan nan nan nan nan nan nan nan 221 nan 217 216 218 217 215 215 216 218 218 217 215 214 213 205 202 199 196 202 202 206 213 214 221 228 236 246 247 244 233 224 219 218 218 218 216 215 216 215 nan nan nan nan nan nan nan nan nan nan nan nan nan
nan nan nan nan nan nan nan nan nan nan nan nan nan nan nan nan nan nan nan nan nan nan nan nan nan nan nan nan nan nan nan nan nan 224 220 218 218 221 222 220 217 217 216 217 217 214 215 215 213 209 207 208 200 200 206 208 210 214 218 226 232 240 242 233 228 222 219 219 218 217 216 215 214 nan nan nan nan nan nan nan nan nan nan nan nan nan
nan nan nan nan nan nan nan nan nan nan nan nan nan nan nan nan nan nan nan nan nan nan nan nan nan nan nan nan nan nan nan nan nan nan 221 nan nan 221 224 224 222 221 219 218 216 215 213 214 215 212 211 211 212 207 200 204 211 210 212 217 224 233 240 241 234 227 223 220 217 216 218 218 216 214 nan nan nan nan nan nan nan nan nan nan nan nan
nan nan nan nan nan nan nan nan nan nan nan nan nan nan nan nan nan nan nan nan nan nan nan nan nan nan nan nan nan nan nan nan nan nan 221 218 nan 220 224 225 224 222 223 221 218 216 215 214 216 217 213 212 212 209 208 205 202 207 215 216 223 227 233 238 237 232 227 222 219 218 221 222 220 218 219 nan 218 218 nan nan nan nan nan nan nan nan
nan nan nan nan nan nan nan nan nan nan nan nan nan nan nan nan nan nan nan nan nan nan nan nan nan nan nan nan nan nan nan nan nan nan nan 215 214 217 221 225 224 221 221 222 220 218 218 215 216 218 216 212 210 210 209 207 206 203 203 217 223 227 232 238 238 238 234 226 223 223 224 224 223 222 222 221 221 221 221 220 221 222 222 nan nan nan
nan nan nan nan nan nan nan nan nan nan nan nan nan nan nan nan nan nan nan nan nan nan nan nan nan nan nan nan nan nan nan nan nan nan nan nan 213 215 218 220 221 219 219 218 217 220 219 215 215 216 215 210 208 209 208 206 205 206 206 206 218 229 234 238 239 241 236 229 226 227 227 225 226 225 223 222 222 223 223 223 222 221 223 224 225 225
nan nan nan nan nan nan nan nan nan nan nan nan nan nan nan nan nan nan nan nan nan nan nan nan nan nan nan nan nan nan nan nan nan nan nan nan 213 214 216 217 217 218 217 214 216 217 218 217 215 215 214 211 209 207 206 205 204 205 206 207 205 219 235 238 239 239 236 232 231 230 228 226 227 226 225 224 223 223 225 225 223 222 224 225 228 231
nan nan nan nan nan nan nan nan nan nan nan nan nan nan nan nan nan nan nan nan nan nan nan nan nan nan nan nan nan nan nan nan nan nan nan nan nan 211 213 214 214 213 211 213 214 217 219 218 217 216 214 212 209 207 206 205 203 202 205 208 210 214 233 238 239 239 239 237 236 234 233 231 229 227 225 225 224 225 226 226 224 223 224 224 228 232
nan nan nan nan nan nan nan nan nan nan nan nan nan nan nan nan nan nan nan nan nan nan nan nan nan nan nan nan nan nan nan nan nan nan nan nan nan nan nan 212 212 209 209 211 212 215 217 218 216 214 214 213 210 209 207 205 204 202 204 208 209 213 224 236 237 239 239 240 238 237 236 235 233 230 228 227 227 226 226 226 223 224 224 226 229 232
nan nan nan nan nan nan nan nan nan nan nan nan nan nan nan nan nan nan nan nan nan nan nan nan nan nan nan nan nan nan nan nan nan nan nan nan nan nan nan 211 209 nan 210 211 212 214 215 217 216 214 215 214 212 211 211 208 205 204 204 207 211 214 217 228 236 236 239 239 239 238 237 236 235 233 232 233 232 230 228 226 225 225 226 227 227 227
nan nan nan nan nan nan nan nan nan nan nan nan nan nan nan nan nan nan nan nan nan nan nan nan nan nan nan nan nan nan nan nan nan nan nan nan nan nan nan nan nan 212 212 211 213 213 216 216 216 215 215 216 214 213 211 209 207 205 206 208 211 212 217 220 228 234 236 238 240 241 239 238 237 234 235 237 239 238 237 235 231 228 229 227 227 229
nan nan nan nan nan nan nan nan nan nan nan nan nan nan nan nan nan nan nan nan nan nan nan nan nan nan nan nan nan nan nan nan nan nan nan nan nan nan nan nan nan nan nan nan nan nan nan 216 217 216 217 216 216 215 213 212 209 207 209 210 210 212 217 221 222 223 226 232 237 240 243 244 243 240 239 240 241 242 243 246 244 243 241 235 229 226
nan nan nan nan nan nan nan nan nan nan nan nan nan nan nan nan nan nan nan nan nan nan nan nan nan nan nan nan nan nan nan nan nan nan nan nan nan nan nan nan nan nan nan nan nan nan nan nan nan 218 218 218 217 216 216 214 212 210 211 213 213 213 215 217 217 217 219 222 224 231 240 244 244 243 243 243 240 236 234 236 243 248 252 250 245 239
nan nan nan nan nan nan nan nan nan nan nan nan nan nan nan nan nan nan nan nan nan nan nan nan nan nan nan nan nan nan nan nan nan nan nan nan nan nan nan nan nan nan nan nan nan nan nan nan nan nan 220 219 219 219 217 217 217 213 213 214 216 216 216 214 212 211 213 215 219 222 225 229 237 241 243 240 233 231 232 232 233 242 254 256 253 249
nan nan nan nan nan nan nan nan nan nan nan nan nan nan nan nan nan nan nan nan nan nan nan nan nan nan nan nan nan nan nan nan nan nan nan nan nan nan nan nan nan nan nan nan nan nan nan nan nan nan nan nan 221 222 219 219 220 219 215 215 217 217 216 212 210 210 209 211 213 217 220 223 223 225 226 228 228 228 231 235 239 241 242 245 246 249
nan nan nan nan nan nan nan nan nan nan nan nan nan nan nan nan nan nan nan nan nan nan nan nan nan nan nan nan nan nan nan nan nan nan nan nan nan nan nan nan nan nan nan nan nan nan nan nan nan nan nan nan nan 223 222 219 219 220 218 217 217 216 216 215 212 211 210 208 210 212 213 212 213 215 215 217 220 223 225 230 237 241 241 238 242 249
nan nan nan nan nan nan nan nan nan nan nan nan nan nan nan nan nan nan nan nan nan nan nan nan nan nan nan nan nan nan nan nan nan nan nan nan nan nan nan nan nan nan nan nan nan nan nan nan nan nan nan nan nan nan nan 222 219 219 219 217 214 214 216 216 214 213 211 207 206 209 211 210 206 206 209 214 219 222 223 228 235 238 236 233 235 239
nan nan nan nan nan nan nan nan nan nan nan nan nan nan nan nan nan nan nan nan nan nan nan nan nan nan nan nan nan nan nan nan nan nan nan nan nan nan nan nan nan nan nan nan nan nan nan nan nan nan nan nan nan nan nan nan 221 218 218 216 213 213 215 216 215 215 213 210 206 204 206 205 203 202 205 207 213 221 225 229 234 236 233 229 230 233
nan nan nan nan nan nan nan nan nan nan nan nan nan nan nan nan nan nan nan nan nan nan nan nan nan nan nan nan nan nan nan nan nan nan nan nan nan nan nan nan nan nan nan nan nan nan nan nan nan nan nan nan nan nan nan nan nan 218 216 214 212 211 213 214 215 215 214 212 210 206 205 204 204 203 204 203 210 218 225 228 232 233 231 230 229 230
nan nan nan nan nan nan nan nan nan nan nan nan nan nan nan nan nan nan nan nan nan nan nan nan nan nan nan nan nan nan nan nan nan nan nan nan nan nan nan nan nan nan nan nan nan nan nan nan nan nan nan nan nan nan nan nan nan nan nan nan nan nan 212 214 216 216 215 212 210 211 210 206 206 209 212 207 208 214 221 225 230 231 232 233 233 234
nan nan nan nan nan nan nan nan nan nan nan nan nan nan nan nan nan nan nan nan nan nan nan nan nan nan nan nan nan nan nan nan nan nan nan nan nan nan nan nan nan nan nan nan nan nan nan nan nan nan nan nan nan nan nan nan nan nan nan nan nan nan nan 213 215 216 216 213 211 214 215 212 213 214 213 210 211 217 222 225 228 231 234 236 237 236
nan nan nan nan nan nan nan nan nan nan nan nan nan nan nan nan nan nan nan nan nan nan nan nan nan nan nan nan nan nan nan nan nan nan nan nan nan nan nan nan nan nan nan nan nan nan nan nan nan nan nan nan nan nan nan nan nan nan nan nan nan nan nan 212 214 215 216 211 210 214 218 217 216 216 215 214 214 217 224 228 230 232 234 239 241 240
nan nan nan nan nan nan nan nan nan nan nan nan nan nan nan nan nan nan nan nan nan nan nan nan nan nan nan nan nan nan nan nan nan nan nan nan nan nan nan nan nan nan nan nan nan nan nan nan nan nan nan nan nan nan nan nan nan nan nan nan nan nan nan nan 211 213 215 213 212 213 217 219 220 221 220 218 217 218 224 231 235 232 230 234 239 243
nan nan nan nan nan nan nan nan nan nan nan nan nan nan nan nan nan nan nan nan nan nan nan nan nan nan nan nan nan nan nan nan nan nan nan nan nan nan nan nan nan nan nan nan nan nan nan nan nan nan nan nan nan nan nan nan nan nan nan nan nan nan nan nan nan 213 216 216 215 nan nan nan 220 222 223 223 222 220 226 232 235 233 228 225 235 243
nan nan nan nan nan nan nan nan nan nan nan nan nan nan nan nan nan nan nan nan nan nan nan nan nan nan nan nan nan nan nan nan nan nan nan nan nan nan nan nan nan nan nan nan nan nan nan nan nan nan nan nan nan nan nan nan nan nan nan nan nan nan nan nan nan nan 216 217 217 nan nan nan nan 221 223 225 226 225 222 223 227 226 222 223 233 241